Theta_e
312 313 312 314 313 312 311 313 309 312 312 318 320 323 336 337 338 339 340 342 345 346 348 350 350 351 354 353 353 353 352 351 350 350 351 350 349 349 350 348 346 346 344 345
311 314 314 312 313 314 314 314 313 314 316 323 322 325 329 336 337 337 339 340 342 344 345 347 349 351 352 353 354 353 348 345 347 345 343 342 343 343 343 342 342 346 345 346
307 312 312 308 312 313 313 316 315 312 320 327 325 325 334 335 335 336 338 339 340 341 344 345 346 350 347 349 351 350 345 344 344 342 340 340 341 340 338 339 340 338 338 337
306 310 302 313 318 316 314 316 318 319 323 325 330 333 335 335 335 338 340 341 343 342 344 347 346 344 346 346 346 342 342 339 340 339 337 337 338 336 335 333 333 333 332 333
305 305 309 313 315 315 314 314 318 318 324 327 330 331 331 335 337 340 342 343 343 344 343 348 345 348 348 345 344 342 337 336 336 336 334 333 331 331 331 330 329 330 331 330
308 304 303 314 318 322 321 311 320 323 325 326 327 320 327 335 337 340 342 342 342 344 344 344 346 346 344 341 340 335 334 332 332 332 329 328 328 329 330 329 329 324 326 328
308 306 311 320 321 322 309 311 320 324 328 328 326 330 337 339 339 341 343 343 344 343 342 342 343 343 342 339 332 333 332 330 328 328 329 327 327 329 328 325 327 325 326 327
311 308 306 323 323 315 323 322 321 325 329 328 336 337 339 341 341 342 341 340 341 340 338 338 339 339 336 331 331 331 328 327 325 324 322 321 326 327 325 324 324 325 326 325
316 316 326 325 323 326 324 324 326 330 335 339 337 338 340 340 340 340 339 340 338 334 332 332 332 334 331 328 328 326 325 324 323 323 325 326 325 324 321 327 323 319 315 313
315 323 324 326 328 326 326 327 328 330 334 334 336 337 338 339 338 337 337 335 335 333 329 327 329 328 328 327 325 323 321 322 325 325 326 326 321 320 320 318 316 315 313 310
320 324 324 323 322 320 329 330 328 331 332 333 336 337 338 337 338 335 335 334 334 333 329 325 325 325 322 323 323 320 322 322 322 321 327 324 322 322 323 325 319 315 313 312
317 328 332 322 323 325 331 328 331 331 332 336 338 339 338 337 337 335 332 333 331 329 326 323 322 322 323 322 321 319 318 317 316 317 316 317 318 318 313 308 306 303 302 305
324 327 328 331 331 332 330 331 331 333 338 338 339 338 337 335 336 328 329 327 326 325 325 325 323 322 322 321 321 321 319 321 316 315 316 315 314 314 312 313 305 302 298 300
328 325 324 326 325 329 332 332 331 337 338 338 338 338 335 331 328 328 326 326 324 325 324 322 320 320 322 321 323 320 320 313 317 317 314 313 313 313 312 312 310 313 302 304
326 326 325 327 331 330 333 334 333 334 336 336 337 333 330 326 327 327 326 324 322 320 320 320 319 321 321 319 320 322 320 318 318 315 315 313 313 314 311 312 311 309 309 306
319 324 326 328 329 333 332 332 333 334 335 333 330 327 325 327 327 324 321 322 320 318 321 321 320 321 321 322 323 320 320 318 314 315 313 313 311 312 311 310 308 307 307 307
321 323 328 326 330 329 330 332 334 334 332 329 328 328 328 324 322 321 320 319 323 325 322 322 320 323 320 326 325 319 315 315 317 312 310 310 311 310 309 307 306 306 306 306
328 329 328 328 329 330 331 334 335 332 329 329 329 328 325 324 323 323 322 322 322 320 321 323 322 321 321 322 324 318 314 314 313 310 310 312 310 309 308 307 307 305 305 306
327 326 327 328 332 333 334 335 332 330 331 330 328 326 326 325 324 323 323 321 319 320 319 323 319 319 322 322 318 316 313 312 310 310 312 311 310 309 308 307 306 307 307 307
327 327 328 331 334 334 335 335 332 331 330 329 328 326 325 324 324 323 324 321 321 321 325 319 319 321 324 320 320 312 312 309 308 309 313 310 309 308 308 304 306 306 308 308
326 329 329 334 332 336 334 333 332 330 330 330 329 327 326 325 325 325 321 315 324 321 319 318 319 320 317 315 314 312 310 309 310 311 311 310 310 309 309 308 307 308 308 309
329 330 331 333 335 334 333 332 333 332 331 331 328 328 325 322 322 322 325 321 319 313 316 318 318 314 314 312 313 313 311 310 311 311 311 310 310 309 309 309 309 308 309 308
332 334 335 336 334 333 333 332 331 331 330 330 328 326 322 318 317 315 314 324 319 313 315 318 312 312 313 313 314 315 311 310 311 312 312 312 311 311 310 309 310 309 309 308
338 338 336 336 334 333 331 332 329 330 332 331 325 327 321 316 316 318 319 314 312 314 315 316 313 311 306 312 314 315 314 312 313 314 316 306 313 314 313 312 309 309 308 304
340 338 337 336 333 329 332 332 330 329 328 327 326 325 324 321 319 318 319 317 310 314 318 309 311 310 312 315 316 316 316 315 315 314 313 313 313 313 313 312 311 309 308 308
337 332 332 336 331 330 329 328 325 325 322 319 319 318 318 320 319 320 321 319 322 317 320 318 316 312 313 311 311 313 314 313 313 312 312 312 314 314 312 312 312 310 310 307
334 323 333 331 332 331 328 327 324 322 319 318 316 317 317 318 318 316 315 320 319 318 316 316 313 311 311 312 313 313 314 314 308 312 313 313 314 313 312 312 312 312 313 309
Wind_Speed
13 9 18 9 15 16 11 16 16 12 7 22 13 1 9 12 13 11 12 12 11 11 9 10 9 7 7 6 7 5 8 7 5 3 3 5 6 6 6 6 5 3 1 1
18 16 21 9 8 11 13 14 14 5 8 18 21 20 21 13 14 13 12 13 12 12 12 11 9 8 7 6 5 5 9 8 5 8 9 8 8 7 8 6 6 5 6 6
15 17 12 17 13 15 12 17 7 4 13 21 24 27 17 17 15 13 13 12 12 11 10 9 10 8 8 6 8 7 9 7 7 7 7 6 5 6 5 5 6 7 7 7
13 15 18 18 12 17 4 4 12 9 19 11 16 16 16 14 13 14 13 13 11 11 10 10 10 12 10 10 8 7 7 6 5 4 4 4 5 5 5 5 5 4 5 4
13 16 16 20 20 7 7 4 11 19 13 15 13 14 12 13 13 13 13 11 10 11 11 10 11 9 8 8 7 7 6 5 5 4 4 4 4 4 4 4 5 4 4 4
12 18 20 3 4 13 13 10 19 10 13 16 14 9 11 14 14 16 13 11 12 13 11 10 8 8 7 7 7 8 5 6 4 4 4 4 4 3 3 4 4 4 4 5
14 14 6 9 12 3 5 3 22 10 14 12 9 4 17 15 13 14 11 12 13 10 9 8 5 7 5 6 9 6 5 5 4 3 3 3 2 2 3 5 3 6 4 5
10 16 11 1 7 6 2 7 17 5 14 10 15 14 14 15 13 13 14 12 10 10 9 7 6 7 7 9 6 4 3 3 3 2 3 4 3 4 5 6 7 6 5 4
3 5 7 3 6 8 7 10 18 9 18 17 14 14 15 13 13 12 12 10 10 10 9 8 7 5 8 6 4 2 1 2 1 1 3 3 4 6 6 4 3 4 5 6
8 8 12 10 10 10 21 14 10 12 15 16 15 15 15 14 13 12 11 10 10 10 9 8 6 7 7 5 3 0 2 2 3 3 4 3 4 5 4 4 5 5 5 6
2 18 14 9 9 16 18 9 10 14 12 14 15 15 14 13 12 12 9 9 8 8 8 8 6 5 6 5 4 4 3 3 5 5 1 3 6 4 3 4 3 4 6 6
5 9 6 21 20 28 5 7 11 10 11 13 14 14 14 12 10 10 10 8 7 7 7 7 6 6 5 4 3 4 5 5 5 5 6 5 5 5 3 9 8 12 14 7
7 2 4 12 9 11 10 8 9 11 13 12 15 14 15 12 11 11 10 9 7 7 7 6 5 5 4 2 2 4 4 5 5 5 5 5 6 6 6 5 13 14 7 6
12 3 3 5 8 7 11 13 9 13 13 13 14 14 13 13 12 10 9 8 8 7 6 6 5 4 2 1 3 3 5 9 6 4 6 6 6 6 7 6 7 7 7 3
14 14 8 5 7 7 8 11 13 13 13 14 14 14 13 12 10 9 8 8 8 8 6 5 4 5 3 1 2 4 6 6 4 5 6 6 7 6 7 8 9 8 9 9
22 16 15 5 6 6 9 9 14 13 13 14 14 14 12 11 11 9 8 7 7 7 6 4 4 5 3 2 4 7 6 7 3 5 6 6 7 8 9 9 8 7 7 7
25 20 7 5 6 7 8 9 12 13 13 13 13 12 11 12 11 9 8 8 4 6 5 3 3 4 1 4 5 6 7 8 7 5 7 7 8 8 8 8 8 7 8 9
11 8 5 6 6 7 8 11 14 14 12 14 12 11 10 10 9 8 7 7 7 6 5 5 3 0 3 5 5 5 7 9 5 6 6 6 7 6 6 7 8 6 8 10
10 7 6 8 10 9 9 12 14 14 14 13 11 10 9 8 9 7 8 7 6 6 7 7 8 5 6 4 5 5 8 9 6 6 6 6 6 7 7 7 9 8 10 9
10 7 7 9 12 11 11 13 14 14 13 12 11 10 9 9 8 7 7 7 5 5 8 9 7 5 5 6 6 8 9 7 8 7 5 5 6 7 7 6 4 10 10 9
11 9 9 11 12 12 14 14 14 14 13 11 10 9 9 8 8 7 7 7 6 6 2 6 5 4 6 1 7 9 8 7 7 6 6 6 6 7 7 8 7 9 10 10
10 10 11 12 12 13 14 14 14 12 11 10 10 9 9 8 8 7 6 1 7 8 4 5 6 2 4 5 7 8 6 7 6 6 6 6 7 8 8 5 7 9 10 9
9 11 11 12 14 14 15 14 13 12 11 10 10 10 9 9 8 8 7 5 7 5 4 6 8 5 1 4 6 6 5 6 7 7 7 7 7 9 7 6 7 8 10 4
8 10 12 12 14 13 13 13 14 12 10 9 10 9 8 8 7 6 7 11 11 6 3 6 6 4 2 5 7 3 3 4 5 6 6 6 7 8 7 9 6 6 4 4
8 9 12 12 13 11 12 12 12 11 11 9 9 8 8 7 6 7 9 8 10 6 4 9 9 7 4 7 7 4 4 4 4 5 6 7 7 7 8 7 8 6 2 6
8 9 10 11 11 10 10 11 9 9 9 9 8 8 8 6 5 7 6 7 8 5 4 6 6 7 5 7 7 5 5 6 6 6 6 7 7 7 6 8 8 6 4 4
8 7 10 9 8 10 11 10 10 10 9 9 9 8 7 6 6 5 6 6 5 6 6 6 4 5 3 2 3 5 5 5 5 5 6 6 6 6 6 6 7 7 5 4
Wind_Direction
277 163 323 226 219 231 260 259 287 140 271 188 184 165 177 169 149 155 144 141 136 130 139 139 148 150 140 114 134 124 89 79 85 141 121 62 49 36 45 46 44 42 61 179
271 193 224 207 216 227 219 272 284 154 73 123 127 191 247 173 162 165 157 146 152 146 153 155 154 156 153 108 131 116 90 82 64 60 50 44 46 38 25 23 26 15 27 15
254 251 252 256 225 237 245 216 258 287 94 132 163 194 179 173 168 158 154 147 144 151 153 149 150 121 109 117 89 83 80 80 75 83 70 55 49 52 22 12 9 5 5 11
249 253 247 256 239 219 171 1 23 349 162 142 131 148 163 164 156 157 145 148 147 137 126 137 132 112 119 111 99 107 90 71 58 87 89 62 50 33 31 357 359 340 333 351
241 241 254 233 243 182 250 197 140 249 121 119 131 136 143 152 156 153 142 147 150 134 140 106 109 114 120 109 112 112 98 79 67 53 61 56 44 23 18 337 319 350 322 346
213 241 241 279 4 11 185 198 200 161 117 129 141 174 161 152 152 143 150 155 134 121 120 115 127 132 135 133 108 92 90 76 65 52 54 45 29 19 348 318 309 336 340 312
225 236 206 49 13 54 115 286 332 122 125 137 122 85 123 136 138 138 142 119 107 126 121 115 135 127 106 107 89 81 84 95 76 36 335 100 22 341 312 305 296 277 266 271
245 225 211 86 96 71 210 61 306 102 122 133 109 125 126 123 126 128 116 112 130 107 112 97 91 105 99 81 89 90 107 112 109 48 345 31 343 301 282 265 262 254 251 253
21 64 159 191 128 98 78 274 212 114 109 112 118 125 123 134 124 120 127 137 127 117 108 91 56 65 108 105 98 104 128 87 347 288 270 228 268 260 265 262 293 342 350 360
27 95 78 61 11 347 308 162 133 123 117 128 136 137 139 134 135 143 138 133 124 131 118 103 87 77 89 92 78 105 45 319 282 297 266 253 267 298 303 337 347 325 342 318
182 119 88 70 66 307 266 119 118 105 128 135 138 139 140 141 139 135 132 127 128 118 121 110 101 88 96 93 46 353 354 305 266 266 295 285 254 260 278 263 248 286 282 282
55 36 68 177 195 217 117 121 114 132 129 128 135 136 140 135 131 132 131 122 122 115 114 117 123 107 91 86 59 6 321 335 353 329 334 321 326 305 292 240 251 236 242 253
338 42 55 122 138 153 152 144 144 139 127 132 130 137 136 129 129 121 129 130 130 125 118 119 121 117 112 68 40 3 336 319 338 310 302 327 336 314 332 309 239 247 67 67
324 337 112 144 166 154 150 139 134 128 135 131 133 132 130 122 126 132 136 131 124 120 129 137 149 138 129 136 64 339 319 278 258 315 339 321 322 313 283 318 350 22 104 70
304 292 298 152 100 133 152 134 139 130 128 127 129 130 119 138 134 126 122 127 135 134 140 142 154 111 90 47 9 302 268 289 330 327 305 299 284 319 351 10 12 1 350 351
312 279 278 176 154 144 150 157 132 137 138 137 133 125 147 130 122 129 134 135 148 151 150 162 130 139 168 78 289 294 321 10 268 287 308 323 355 4 7 0 353 340 338 330
227 231 166 238 159 169 169 169 144 146 137 133 128 143 131 131 134 140 146 151 139 117 134 155 145 104 322 267 277 332 350 311 295 321 349 351 26 357 356 347 334 336 322 325
260 250 211 207 176 162 178 151 136 139 136 134 133 139 141 143 141 145 151 139 133 153 165 138 179 25 340 314 352 337 315 291 337 346 356 17 3 344 340 329 320 334 318 304
238 207 215 201 153 169 167 137 138 138 128 133 147 149 146 142 140 152 146 152 171 174 179 180 160 220 252 241 270 317 299 309 347 3 349 10 342 355 332 335 337 317 309 314
230 212 217 172 144 163 146 131 134 131 138 151 152 147 147 140 145 152 151 178 176 58 132 137 205 275 262 166 228 303 283 350 359 344 347 341 355 318 302 340 352 319 320 323
217 163 188 135 159 147 131 136 139 139 152 154 150 152 145 139 149 152 168 200 156 130 194 168 244 302 84 15 336 305 348 354 352 337 334 342 313 324 353 335 321 317 322 329
159 161 155 159 149 140 142 141 135 147 151 146 150 148 141 151 155 183 201 183 130 164 224 256 198 79 14 314 343 314 350 345 329 324 329 327 331 331 317 322 298 331 322 328
155 154 157 153 150 143 138 143 148 153 148 150 153 153 167 162 175 183 189 199 140 159 270 86 121 138 23 315 313 311 350 337 324 328 323 326 339 304 313 282 329 323 330 8
145 150 151 151 146 141 148 147 152 148 143 153 164 165 177 162 181 204 116 101 123 177 244 123 139 138 294 308 287 307 351 335 322 311 325 320 299 293 322 317 337 328 11 21
141 159 146 155 144 150 146 151 140 143 153 170 156 173 198 190 188 177 160 144 145 219 95 150 164 188 244 259 265 40 4 307 298 284 290 300 314 328 304 331 335 1 34 352
159 167 164 151 158 154 158 147 160 160 175 160 168 187 198 160 116 122 131 149 168 212 172 161 202 207 272 26 2 349 327 324 329 339 335 321 304 309 337 339 339 337 329 337
168 163 133 156 160 157 158 175 160 165 183 159 168 186 182 165 149 201 168 174 198 211 103 66 49 64 15 320 300 13 15 349 354 345 322 332 321 324 338 342 328 325 336 304